Showing default

FOSSASAT2E25, 68478

Orbit data source: Space-Track

FOSSASAT2E25, 68478 is a payload satellite owned by Fossa Systems (ES) in SSO that was launched on Mon, 30 Mar 2026 UTC via an FALCON 9 launch vehicle from the Air Force Western Test Range (AFWTR). Payload-class satellites include a variety of spacecraft equipped with specific instruments for various scientific and technological missions. These include communications satellites like Starlink; space stations such as the ISS; scientific satellites like the Hubble; Earth observation satellites from companies like Planet Labs, Umbra, and HawkEye 360; GPS; miniature CubeSats for education and research; and military/defense satellites.

Loading next visibility...
Identifier
68478, 2026-067BQ
Orbit
SSO
Country
Flag of ESES / SPN
Related business
Manufacturer
Fossa Systems
Mission
Operational Commercial Communications
Bus & Motor
CUBESAT 3U, Unknown motor
Mass
5 kg wet, 5 kg dry
Launch date (UTC)
2026-03-30 (6 months ago)
Launch vehicle
FALCON 9
Launch site
Air Force Western Test Range (AFWTR)
Object type
Payload
Rocket body
Debris
Shape & HBR
Box, 0.2 m
Radar Cross Section
0.035 m², Medium (>0.1 m² and < 1m²)

Expand to show TLE details & history
Last TLE update: 2 days ago

TLE from 2 days ago
0 FOSSASAT2E25
1 68478U 26067BQ  26262.64715803  .00000537  00000-0  58146-4 0  9999
2 68478  97.7702 219.5870 0001944  19.5042 340.6251 14.92270877 25812
Epoch: 2026-09-19T15:31Z
TLE epoch observation values (Epoch: 2026-09-19T15:31:54.453Z)
Latitude
-0.00005°
Longitude
-11.94257°
Altitude
592.62 km
Speed
7.564 km/s
True Right ascension
14h 38m 20s
True Declination
0° 00' 00"
Sunlit
Object was in daylight at epoch
Visualization orbit readout
Latitude
Unknown
Longitude
Unknown
Altitude
Unknown
Speed
Unknown
Apparent Right ascension
Unknown
Apparent Declination
Unknown
Sunlit
N/A
Visualization observer readout
Local Sidereal Time
23:11:31
Azimuth
Unknown
Elevation
Unknown
Doppler factor
Unknown
Orbital elements
Apogee altitude
589.229 km
Perigee altitude
586.521 km
Semi-major axis
6,966.012 km
Eccentricity
0.00019
Inclination
97.7702°
RAAN
219.587°
Arg. of periapsis
19.5042°
True anomaly
340.61771°
Mean anomaly
340.6251°
Eccentric anomaly
340.6214°
Mean motion
3.73308 °/min
Orbital period
96.44 mins
BSTAR
0.000058146
Loading maneuver chart data...
Computing Atmospheric mass density...
Loading historical data...
Loading historical data...
Loading historical data...
Loading historical data...
Loading historical data...
Loading historical data...
Loading historical data...

Documentation

Showing up to 5 results
|